PAS 1R

operational
NORAD ID: 26608 Int'l Des: 2000-072 Owner: PAN Country: US
HEOCIRCULAR

About PAS 1R

Description loading...

Live Position

Loading 3D Globe...

Upcoming Passes

Altitude History

Altitude vs Time

uPlot chart will show altitude changes over time

Two-Line Element Set

1 26608U 00072A 26062.43197460 -.00000174 00000-0 00000+0 0 9993
2 26608 7.8137 65.9326 0010529 270.4906 280.3543 0.98968423 40183
Epoch: Mar 3, 2026 • Age: 35 hours

Current Status

Altitude 36146.0 km
Velocity 3.06 km/s
Sub-Earth Point -1.76°S, 64.93°W
Launch Date Nov 16, 2000
Age 25.2 years
Type other

Technical Details

Classification Payload
Mass 4793.00 kg
Dry Mass 3000.00 kg
Total Mass 4793.00 kg
Length 6.20 m
Diameter 3.50 m
Span 41.00 m
Shape Box + 2 Pan
Manufacturer BOES
Bus Type BSS-702HP
Phase Status Unknown Active Status
Owner/State PAN/US

Large Constellations

Loading constellations...